Tracking 25612 objects as of 19-May-2022
HD Live streaming from Space Station
objects crossing your sky now

COSMOS 2251 DEB

Track COSMOS 2251 DEB now!
10-day predictions


NORAD ID: 35701
Int'l Code: 1993-036APW
Perigee: 765.8 km
Apogee: 1,229.7 km
Inclination: 74.0 °
Period: 104.9 minutes
Semi major axis: 7368 km
RCS: 0.0086 m2 (small)
Launch date: June 16, 1993
Source: Commonwealth of Independent States (former USSR) (CIS)
Launch site: PLESETSK MISSILE AND SPACE COMPLEX (PKMTR)

Note: This is SATELLITE DEBRIS
aabbcc
Your satellite tracking list
Your tracking list is empty




NASA's NSSDC Master Catalog

Two Line Element Set (TLE):
1 35701U 93036APW 22134.20002394  .00001458  00000-0  11317-2 0  9992
2 35701  74.0095 325.6318 0314796  93.9845 269.7317 13.72509561657416
Source of the keplerian elements: AFSPC